星链-32256 (STARLINK-32256)

导读

STARLINK-32256是美国太空探索技术公司(SpaceX)于2024年8月4日发射的星链(Starlink)低轨通信卫星,属于第二代星链v2.0 mini系列,本次G11-1任务共将23颗星链卫星送入近地轨道。 它隶属于SpaceX构建的全球星链卫星互联网星座,旨在为全球缺乏传统网络基础设施的偏远地区提供高速低延迟的宽带互联网服务,此次发射后,星链累计升空卫星总数突破6800颗,持续推进全球低轨星座部署。

Basic Information
目录编号:
60362
目录名称:
STARLINK-32256
国际标识:
2024-138H
轨道中心:
EARTH
卫星名称:
星链-32256 (STARLINK-32256)
卫星全名:
星链-32256 (STARLINK-32256)
卫星状态:
在轨 (已飞行761 天)
发射日期:
2024-08-04 UTC
国别 :
美国 (US)
星等 :
--
Orbit Information
数据来源 国际轨道数据 AOE轨道数据
星历时间 2026-09-04T05:45:48+0800
9小时前
查看轨道信息
2026-09-03T12:00:00+0800
1天前
查看轨道信息
半长轴 6840.863km 6840.872km
偏心率 0.0002085 0.0001692
轨道倾角 53.162° 53.158°
近地点辐角 97.392° 79.903°
升交点赤经 201.070° 204.534°
平近点角 262.732° 149.546°
近地点 461.299km 461.577km
远地点 464.153km 463.893km
周期 93.848分钟 93.848分钟
每日圈数 15.343926 15.343894
Detailed Information
卫星平台:
Starlink v2.0 mini
运营商:
太空探索技术公司
运营商所在国:
美国
制造商(研发单位):
太空探索技术公司
制造商所在国:
美国
使用方式:
暂无
Satellite Introduction
星链(Starlink)计划是由太空探索技术公司(SpaceX)提出的一个巨型低轨卫星互联网星座项目,计划在2019年至2024年间在太空搭建由约1.2万颗卫星组成的“星链”网络,其中1584颗将部署在地球上空550千米处的近地轨道,并从2020年开始工作。该卫星仍在工作。
2D Orbit Map
3D Orbit Map
Orbit Altitude Analysis Chart
Orbit Inclination Analysis Chart
Orbit Comprehensive Analysis Chart
View Comprehensive Chart